Hourly Weather Roundup
Issued by NWS Central Illinois

Home | Current Version | Previous Version | Text Only | Print | Product List | Glossary On
Versions: 1 2 3 4 5 6 7 8 9 10 11 12 13 14 15 16 17 18 19 20 21 22 23 24 25 26 27 28 29 30 31 32 33 34 35 36 37 38 39 40 41 42 43 44 45 46 47 48 49 50
000
NZUS43 KILX 221810
HWRILX

AREA WEATHER ROUNDUP
NATIONAL WEATHER SERVICE, LINCOLN IL
100 PM CDT FRI AUG 22 2014


CITY           SKY/WX    TMP DP  RH WIND       PRES   REMARKS
BLOOMINGTON    LGT RAIN  73  70  91 SW13      29.97F
CHAMPAIGN      CLOUDY    79  74  84 NE8       29.97F HX  82
6HR MIN TEMP:  73; 6HR MAX TEMP:  79; 6HR PCP:  0.11;

DECATUR        CLOUDY    80  74  81 SW10      29.98F HX  85
6HR MIN TEMP:  75; 6HR MAX TEMP:  80; 6HR PCP:  0.19;

FLORA          CLOUDY    84  73  71 W5        30.02F HX  90
6HR MIN TEMP:  72; 6HR MAX TEMP:  85;

GALESBURG      CLOUDY    80  76  87 S9        29.98F HX  87
JACKSONVILLE   CLOUDY    83  78  84 S3        30.01F HX  92
6HR MIN TEMP:  77; 6HR MAX TEMP:  83; 6HR PCP:  0.03;

LACON          LGT RAIN  73  71  93 SW8       29.94F
6HR MIN TEMP:  71; 6HR MAX TEMP:  73; 6HR PCP:  0.93;

LAWRENCEVILLE  CLOUDY    86  76  71 SW9       30.00F HX  96
6HR MIN TEMP:  76; 6HR MAX TEMP:  86;

LITCHFIELD     CLOUDY    83  76  79 S9        30.01F HX  90
$$


CITY           SKY/WX    TMP DP  RH WIND       PRES   REMARKS
LINCOLN        LGT RAIN  79  74  86 CALM      29.96F HX  82
6HR MIN TEMP:  73; 6HR MAX TEMP:  79; 6HR PCP:  0.88;

MACOMB         CLOUDY    79  76  90 S7        30.01F HX  83
MATTOON        CLOUDY    80  74  81 S10       29.98F HX  85
6HR MIN TEMP:  76; 6HR MAX TEMP:  80;

MT CARMEL AP   CLOUDY    88  77  70 SW7       30.01F HX 100
OLNEY-NOBLE AP CLOUDY    84  75  74 CALM      30.01F HX  92
PARIS          CLOUDY    81  74  80 CALM      29.99F HX  86
6HR MIN TEMP:  74; 6HR MAX TEMP:  81;

PEORIA         CLOUDY    78  73  84 SW7       29.99S HX  81
6HR MIN TEMP:  74; 6HR MAX TEMP:  78; 6HR PCP:  0.27;

PONTIAC        CLOUDY    77  73  88 CALM      29.97S
RANTOUL        CLOUDY    82  70  68 CALM      29.98F HX  85
6HR MIN TEMP:  74; 6HR MAX TEMP:  82; 6HR PCP:  0.05;

ROBINSON       CLOUDY    85  78  78 SW7       30.01F HX  97
6HR MIN TEMP:  78; 6HR MAX TEMP:  85;

SPRINGFIELD    CLOUDY    82  74  76 S5        30.01R HX  88
6HR MIN TEMP:  77; 6HR MAX TEMP:  82;

TAYLORVILLE    CLOUDY    81  73  78 SE7       30.00F HX  85
$$

...REGIONAL REPORTS...


CITY           SKY/WX    TMP DP  RH WIND       PRES   REMARKS
CHICAGO O`HARE CLOUDY    81  73  76 W5        29.94F HX  86
KANKAKEE       CLOUDY    78  73  85 W6        29.99R
MOLINE         CLOUDY    79  74  84 SW12      29.94F HX  82
MOUNT VERNON   CLOUDY    88  73  62 SW5       30.03S HX  96
PITTSFIELD     CLOUDY    86  75  68 SE7       30.00F HX  95
QUINCY         PTSUNNY   84  74  71 SE10      29.98F HX  91
ROCKFORD       CLOUDY    78  71  79 S9        29.96F HX  80
$$


CITY           SKY/WX    TMP DP  RH WIND       PRES   REMARKS
BURLINGTON     CLOUDY    82  75  79 S12       29.98F HX  89
CEDAR RAPIDS   MOSUNNY   85  75  72 SW5       29.95S HX  93
DES MOINES     CLOUDY    87  76  69 NW6       29.93F HX  97
KIRKSVILLE     PTSUNNY   83  75  77 CALM      29.98F HX  90
OTTUMWA        CLOUDY    83  75  77 S6        29.94F HX  90
ST LOUIS       PTSUNNY   91  73  55 SW5       30.01F HX  99
$$


CITY           SKY/WX    TMP DP  RH WIND       PRES   REMARKS
TERRE HAUTE    CLOUDY    82  74  76 SW7       29.99S HX  88
EVANSVILLE     PTSUNNY   88  75  65 SW5       30.03F HX  97
INDIANAPOLIS   CLOUDY    82  71  69 SW7       30.00S HX  86
LAFAYETTE      CLOUDY    77  72  84 VRB3      29.98F
MADISON        PTSUNNY   83  74  74 VRB6      29.95S HX  89
MILWAUKEE      CLOUDY    76  71  85 SE7       29.96S
$$




USA.gov is the U.S. government's official web portal to all federal, state and local government web resources and services.